�N����,����,�g�[���i�䏊�j���x,�g�[�����x,��g�[���i��Q���j���x,����
 2005/01/01, 0:00,16.6,42,13.7,-9.9
 2005/01/01, 0:15,16.4,42,13.6,-9.9
 2005/01/01, 0:30,17,44,13.4,-9.9
 2005/01/01, 0:45,17.1,41,13.4,-9.9
 2005/01/01, 1:00,16,41,13.2,-9.9
 2005/01/01, 1:15,15.9,42,13.2,-9.9
 2005/01/01, 1:30,16.3,43,13.1,-9.9
 2005/01/01, 1:45,16.6,41,13,-9.9
 2005/01/01, 2:00,15.5,42,12.9,-9.9
 2005/01/01, 2:15,15.4,42,12.8,-9.9
 2005/01/01, 2:30,15.8,43,12.8,-9.9
 2005/01/01, 2:45,16,41,12.7,-9.9
 2005/01/01, 3:00,14.8,42,12.6,-9.9
 2005/01/01, 3:15,14.9,42,12.5,-9.9
 2005/01/01, 3:30,15.5,44,12.4,-9.9
 2005/01/01, 3:45,15.6,42,12.3,-9.9
 2005/01/01, 4:00,14.6,43,12.2,-9.9
 2005/01/01, 4:15,14.3,43,12.1,-9.9
 2005/01/01, 4:30,15.1,44,12.1,-9.9
 2005/01/01, 4:45,15.1,41,12,-9.9
 2005/01/01, 5:00,14.4,44,11.9,-9.9
 2005/01/01, 5:15,14.9,43,11.9,-9.9
 2005/01/01, 5:30,14,44,11.7,-9.9
 2005/01/01, 5:45,14.8,43,11.7,-9.9
 2005/01/01, 6:00,13.9,42,11.6,-9.9
 2005/01/01, 6:15,14.6,44,11.5,-9.9
 2005/01/01, 6:30,14.2,41,11.4,-9.9
 2005/01/01, 6:45,13.9,44,11.4,-9.9
 2005/01/01, 7:00,13.7,46,11.3,-9.9
 2005/01/01, 7:15,14.3,43,11.2,-9.9
 2005/01/01, 7:30,13.4,44,11.1,-9.9
 2005/01/01, 7:45,14.2,44,11,-9.9
 2005/01/01, 8:00,14.3,43,11.1,-9.9
 2005/01/01, 8:15,15.1,44,11.2,-9.9
 2005/01/01, 8:30,16.2,45,11.3,-9.9
 2005/01/01, 8:45,16.7,43,11.4,-9.9
 2005/01/01, 9:00,16.3,44,11.4,-9.9
 2005/01/01, 9:15,18,41,11.6,-9.9
 2005/01/01, 9:30,18.4,40,11.9,-9.9
 2005/01/01, 9:45,18.8,40,11.9,-9.9
 2005/01/01,10:00,19.3,39,12.1,-9.9
 2005/01/01,10:15,18.9,40,12.4,-9.9
 2005/01/01,10:30,18.8,41,12.5,-9.9
 2005/01/01,10:45,19.4,39,12.5,-9.9
 2005/01/01,11:00,18.8,44,12.7,-9.9
 2005/01/01,11:15,19.2,46,12.7,-9.9
 2005/01/01,11:30,19.4,43,13.1,-9.9
 2005/01/01,11:45,19.9,41,13.4,-9.9
 2005/01/01,12:00,19.6,40,13.5,-9.9
 2005/01/01,12:15,19.9,40,13.5,-9.9
 2005/01/01,12:30,18.8,36,13.8,-9.9
 2005/01/01,12:45,15.9,24,14.1,-9.9
 2005/01/01,13:00,13.7,50,14,-9.9
 2005/01/01,13:15,11.7,39,13.9,-9.9
 2005/01/01,13:30,13.7,39,13.9,-9.9
 2005/01/01,13:45,15.4,49,14,-9.9
 2005/01/01,14:00,14.4,71,13.8,-9.9
 2005/01/01,14:15,11.6,60,13.8,-9.9
 2005/01/01,14:30,12.3,33,14,-9.9
 2005/01/01,14:45,20.7,42,14,-9.9
 2005/01/01,15:00,20.8,41,14.1,-9.9
 2005/01/01,15:15,20.7,40,14.1,-9.9
 2005/01/01,15:30,20.8,39,14.1,-9.9
 2005/01/01,15:45,20.6,39,14.3,-9.9
 2005/01/01,16:00,20.9,38,14.2,-9.9
 2005/01/01,16:15,20.9,37,14.4,-9.9
 2005/01/01,16:30,20.7,38,14.4,-9.9
 2005/01/01,16:45,20.9,39,14.3,-9.9
 2005/01/01,17:00,21.5,37,14.2,-9.9
 2005/01/01,17:15,21.6,37,14.1,-9.9
 2005/01/01,17:30,21.8,37,14,-9.9
 2005/01/01,17:45,22.1,35,14,-9.9
 2005/01/01,18:00,20.9,37,14.4,-9.9
 2005/01/01,18:15,21.2,38,14.6,-9.9
 2005/01/01,18:30,21.1,40,14.6,-9.9
 2005/01/01,18:45,21,42,14.7,-9.9
 2005/01/01,19:00,22.1,44,14.8,-9.9
 2005/01/01,19:15,22,40,14.8,-9.9
 2005/01/01,19:30,21.9,40,14.7,-9.9
 2005/01/01,19:45,22.8,37,14.7,-9.9
 2005/01/01,20:00,21.5,42,14.7,-9.9
 2005/01/01,20:15,23.1,38,14.9,-9.9
 2005/01/01,20:30,23,37,14.9,-9.9
 2005/01/01,20:45,23.3,37,15.1,-9.9
 2005/01/01,21:00,23.4,35,15,-9.9
 2005/01/01,21:15,23.3,39,15.1,-9.9
 2005/01/01,21:30,-9.9,-9.9,15.1,-9.9
 2005/01/01,21:45,-9.9,-9.9,15,-9.9
 2005/01/01,22:00,-9.9,-9.9,15.2,-9.9
 2005/01/01,22:15,-9.9,-9.9,15.2,-9.9
 2005/01/01,22:30,-9.9,-9.9,15,-9.9
 2005/01/01,22:45,-9.9,-9.9,15.1,-9.9
 2005/01/01,23:00,-9.9,-9.9,15.1,-9.9
 2005/01/01,23:15,-9.9,-9.9,15.4,-9.9
 2005/01/01,23:30,-9.9,-9.9,15.3,-9.9
 2005/01/01,23:45,-9.9,-9.9,15.3,-9.9
 2005/01/02, 0:00,-9.9,-9.9,15.4,-9.9
 2005/01/02, 0:15,-9.9,-9.9,15.2,-9.9
 2005/01/02, 0:30,-9.9,-9.9,15.3,-9.9
 2005/01/02, 0:45,-9.9,-9.9,15.3,-9.9
 2005/01/02, 1:00,-9.9,-9.9,15.1,-9.9
 2005/01/02, 1:15,-9.9,-9.9,15.2,-9.9
 2005/01/02, 1:30,-9.9,-9.9,15.2,-9.9
 2005/01/02, 1:45,-9.9,-9.9,15.1,-9.9
 2005/01/02, 2:00,-9.9,-9.9,15.1,-9.9
 2005/01/02, 2:15,-9.9,-9.9,17.9,-9.9
 2005/01/02, 2:30,-9.9,-9.9,19.5,-9.9
 2005/01/02, 2:45,-9.9,-9.9,17,-9.9
 2005/01/02, 3:00,-9.9,-9.9,16.7,-9.9
 2005/01/02, 3:15,-9.9,-9.9,16.3,-9.9
 2005/01/02, 3:30,-9.9,-9.9,16,-9.9
 2005/01/02, 3:45,-9.9,-9.9,15.6,-9.9
 2005/01/02, 4:00,-9.9,-9.9,15.3,-9.9
 2005/01/02, 4:15,-9.9,-9.9,15,-9.9
 2005/01/02, 4:30,-9.9,-9.9,14.8,-9.9
 2005/01/02, 4:45,-9.9,-9.9,14.6,-9.9
 2005/01/02, 5:00,-9.9,-9.9,14.4,-9.9
 2005/01/02, 5:15,-9.9,-9.9,14.1,-9.9
 2005/01/02, 5:30,-9.9,-9.9,13.9,-9.9
 2005/01/02, 5:45,-9.9,-9.9,13.7,-9.9
 2005/01/02, 6:00,-9.9,-9.9,13.6,-9.9
 2005/01/02, 6:15,-9.9,-9.9,13.3,-9.9
 2005/01/02, 6:30,-9.9,-9.9,13.3,-9.9
 2005/01/02, 6:45,-9.9,-9.9,13,-9.9
 2005/01/02, 7:00,-9.9,-9.9,12.9,-9.9
 2005/01/02, 7:15,-9.9,-9.9,12.8,-9.9
 2005/01/02, 7:30,-9.9,-9.9,12.6,-9.9
 2005/01/02, 7:45,-9.9,-9.9,12.5,-9.9
 2005/01/02, 8:00,-9.9,-9.9,12.3,-9.9
 2005/01/02, 8:15,-9.9,-9.9,12.2,-9.9
 2005/01/02, 8:30,-9.9,-9.9,12.2,-9.9
 2005/01/02, 8:45,-9.9,-9.9,12.1,-9.9
 2005/01/02, 9:00,-9.9,-9.9,12.2,-9.9
 2005/01/02, 9:15,-9.9,-9.9,12.3,-9.9
 2005/01/02, 9:30,-9.9,-9.9,12.6,-9.9
 2005/01/02, 9:45,-9.9,-9.9,12.9,-9.9
 2005/01/02,10:00,-9.9,-9.9,13,-9.9
 2005/01/02,10:15,-9.9,-9.9,13.2,-9.9
 2005/01/02,10:30,-9.9,-9.9,13.1,-9.9
 2005/01/02,10:45,-9.9,-9.9,13.2,-9.9
 2005/01/02,11:00,-9.9,-9.9,13.3,-9.9
 2005/01/02,11:15,-9.9,-9.9,13.2,-9.9
 2005/01/02,11:30,-9.9,-9.9,13.1,-9.9
 2005/01/02,11:45,-9.9,-9.9,13.4,-9.9
 2005/01/02,12:00,-9.9,-9.9,13.6,-9.9
 2005/01/02,12:15,-9.9,-9.9,13.7,-9.9
 2005/01/02,12:30,-9.9,-9.9,13.7,-9.9
 2005/01/02,12:45,-9.9,-9.9,13.7,-9.9
 2005/01/02,13:00,-9.9,-9.9,13.9,-9.9
 2005/01/02,13:15,-9.9,-9.9,14,-9.9
 2005/01/02,13:30,-9.9,-9.9,14.2,-9.9
 2005/01/02,13:45,-9.9,-9.9,14.5,-9.9
 2005/01/02,14:00,-9.9,-9.9,14.8,-9.9
 2005/01/02,14:15,-9.9,-9.9,15.3,-9.9
 2005/01/02,14:30,-9.9,-9.9,15.6,-9.9
 2005/01/02,14:45,-9.9,-9.9,15.7,-9.9
 2005/01/02,15:00,-9.9,-9.9,15.9,-9.9
 2005/01/02,15:15,-9.9,-9.9,16.3,-9.9
 2005/01/02,15:30,-9.9,-9.9,16.2,-9.9
 2005/01/02,15:45,-9.9,-9.9,16.3,-9.9
 2005/01/02,16:00,-9.9,-9.9,16.4,-9.9
 2005/01/02,16:15,-9.9,-9.9,16.5,-9.9
 2005/01/02,16:30,-9.9,-9.9,16.5,-9.9
 2005/01/02,16:45,-9.9,-9.9,16.5,-9.9
 2005/01/02,17:00,-9.9,-9.9,16.7,-9.9
 2005/01/02,17:15,-9.9,-9.9,16.7,-9.9
 2005/01/02,17:30,-9.9,-9.9,16.8,-9.9
 2005/01/02,17:45,-9.9,-9.9,16.8,-9.9
 2005/01/02,18:00,-9.9,-9.9,16.8,-9.9
 2005/01/02,18:15,-9.9,-9.9,16.8,-9.9
 2005/01/02,18:30,-9.9,-9.9,16.8,-9.9
 2005/01/02,18:45,-9.9,-9.9,16.8,-9.9
 2005/01/02,19:00,-9.9,-9.9,16.8,-9.9
 2005/01/02,19:15,-9.9,-9.9,16.8,-9.9
 2005/01/02,19:30,-9.9,-9.9,16.8,-9.9
 2005/01/02,19:45,-9.9,-9.9,16.8,-9.9
 2005/01/02,20:00,-9.9,-9.9,16.7,-9.9
 2005/01/02,20:15,-9.9,-9.9,16.6,-9.9
 2005/01/02,20:30,-9.9,-9.9,16.6,-9.9
 2005/01/02,20:45,-9.9,-9.9,16.7,-9.9
 2005/01/02,21:00,-9.9,-9.9,16.6,-9.9
 2005/01/02,21:15,-9.9,-9.9,16.6,-9.9
 2005/01/02,21:30,-9.9,-9.9,16.6,-9.9
 2005/01/02,21:45,-9.9,-9.9,16.7,-9.9
 2005/01/02,22:00,-9.9,-9.9,16.6,-9.9
 2005/01/02,22:15,-9.9,-9.9,16.5,-9.9
 2005/01/02,22:30,-9.9,-9.9,16.3,-9.9
 2005/01/02,22:45,-9.9,-9.9,16.2,-9.9
 2005/01/02,23:00,-9.9,-9.9,16.1,-9.9
 2005/01/02,23:15,-9.9,-9.9,15.9,-9.9
 2005/01/02,23:30,-9.9,-9.9,15.8,-9.9
 2005/01/02,23:45,-9.9,-9.9,15.6,-9.9
 2005/01/03, 0:00,-9.9,-9.9,15.5,-9.9
 2005/01/03, 0:15,-9.9,-9.9,15.6,-9.9
 2005/01/03, 0:30,-9.9,-9.9,15.4,-9.9
 2005/01/03, 0:45,-9.9,-9.9,15.4,-9.9
 2005/01/03, 1:00,-9.9,-9.9,15.2,-9.9
 2005/01/03, 1:15,-9.9,-9.9,15.1,-9.9
 2005/01/03, 1:30,-9.9,-9.9,15,-9.9
 2005/01/03, 1:45,-9.9,-9.9,15,-9.9
 2005/01/03, 2:00,-9.9,-9.9,14.9,-9.9
 2005/01/03, 2:15,-9.9,-9.9,15,-9.9
 2005/01/03, 2:30,-9.9,-9.9,15,-9.9
 2005/01/03, 2:45,-9.9,-9.9,14.8,-9.9
 2005/01/03, 3:00,-9.9,-9.9,14.7,-9.9
 2005/01/03, 3:15,-9.9,-9.9,14.6,-9.9
 2005/01/03, 3:30,-9.9,-9.9,14.5,-9.9
 2005/01/03, 3:45,-9.9,-9.9,14.4,-9.9
 2005/01/03, 4:00,-9.9,-9.9,14.2,-9.9
 2005/01/03, 4:15,-9.9,-9.9,14.1,-9.9
 2005/01/03, 4:30,-9.9,-9.9,14.1,-9.9
 2005/01/03, 4:45,-9.9,-9.9,14,-9.9
 2005/01/03, 5:00,-9.9,-9.9,13.7,-9.9
 2005/01/03, 5:15,-9.9,-9.9,13.6,-9.9
 2005/01/03, 5:30,-9.9,-9.9,13.5,-9.9
 2005/01/03, 5:45,-9.9,-9.9,13.4,-9.9
 2005/01/03, 6:00,-9.9,-9.9,13.3,-9.9
 2005/01/03, 6:15,-9.9,-9.9,13.3,-9.9
 2005/01/03, 6:30,-9.9,-9.9,13.2,-9.9
 2005/01/03, 6:45,-9.9,-9.9,13,-9.9
 2005/01/03, 7:00,-9.9,-9.9,12.9,-9.9
 2005/01/03, 7:15,-9.9,-9.9,12.7,-9.9
 2005/01/03, 7:30,-9.9,-9.9,12.7,-9.9
 2005/01/03, 7:45,-9.9,-9.9,12.6,-9.9
 2005/01/03, 8:00,-9.9,-9.9,12.5,-9.9
 2005/01/03, 8:15,-9.9,-9.9,12.4,-9.9
 2005/01/03, 8:30,-9.9,-9.9,12.3,-9.9
 2005/01/03, 8:45,-9.9,-9.9,12.3,-9.9
 2005/01/03, 9:00,-9.9,-9.9,12.2,-9.9
 2005/01/03, 9:15,-9.9,-9.9,12.2,-9.9
 2005/01/03, 9:30,-9.9,-9.9,12.2,-9.9
 2005/01/03, 9:45,-9.9,-9.9,12.4,-9.9
 2005/01/03,10:00,-9.9,-9.9,12.5,-9.9
 2005/01/03,10:15,-9.9,-9.9,12.7,-9.9
 2005/01/03,10:30,-9.9,-9.9,12.8,-9.9
 2005/01/03,10:45,-9.9,-9.9,12.8,-9.9
 2005/01/03,11:00,-9.9,-9.9,12.9,-9.9
 2005/01/03,11:15,-9.9,-9.9,13.1,-9.9
 2005/01/03,11:30,-9.9,-9.9,13.1,-9.9
 2005/01/03,11:45,-9.9,-9.9,13.2,-9.9
 2005/01/03,12:00,-9.9,-9.9,13.2,-9.9
 2005/01/03,12:15,-9.9,-9.9,13.2,-9.9
 2005/01/03,12:30,-9.9,-9.9,13.2,-9.9
 2005/01/03,12:45,-9.9,-9.9,13.3,-9.9
 2005/01/03,13:00,-9.9,-9.9,13.4,-9.9
 2005/01/03,13:15,-9.9,-9.9,13.5,-9.9
 2005/01/03,13:30,-9.9,-9.9,13.5,-9.9
 2005/01/03,13:45,-9.9,-9.9,13.5,-9.9
 2005/01/03,14:00,-9.9,-9.9,13.6,-9.9
 2005/01/03,14:15,-9.9,-9.9,13.7,-9.9
 2005/01/03,14:30,-9.9,-9.9,13.8,-9.9
 2005/01/03,14:45,-9.9,-9.9,14,-9.9
 2005/01/03,15:00,-9.9,-9.9,14,-9.9
 2005/01/03,15:15,-9.9,-9.9,14,-9.9
 2005/01/03,15:30,-9.9,-9.9,14,-9.9
 2005/01/03,15:45,-9.9,-9.9,13.9,-9.9
 2005/01/03,16:00,-9.9,-9.9,13.9,-9.9
 2005/01/03,16:15,-9.9,-9.9,14,-9.9
 2005/01/03,16:30,-9.9,-9.9,13.9,-9.9
 2005/01/03,16:45,-9.9,-9.9,13.8,-9.9
 2005/01/03,17:00,-9.9,-9.9,13.8,-9.9
 2005/01/03,17:15,-9.9,-9.9,13.7,-9.9
 2005/01/03,17:30,-9.9,-9.9,13.7,-9.9
 2005/01/03,17:45,-9.9,-9.9,13.8,-9.9
 2005/01/03,18:00,-9.9,-9.9,13.7,-9.9
 2005/01/03,18:15,-9.9,-9.9,13.8,-9.9
 2005/01/03,18:30,-9.9,-9.9,13.7,-9.9
 2005/01/03,18:45,-9.9,-9.9,13.7,-9.9
 2005/01/03,19:00,-9.9,-9.9,13.8,-9.9
 2005/01/03,19:15,-9.9,-9.9,13.8,-9.9
 2005/01/03,19:30,-9.9,-9.9,13.7,-9.9
 2005/01/03,19:45,-9.9,-9.9,13.7,-9.9
 2005/01/03,20:00,-9.9,-9.9,13.7,-9.9
 2005/01/03,20:15,-9.9,-9.9,13.6,-9.9
 2005/01/03,20:30,-9.9,-9.9,13.7,-9.9
 2005/01/03,20:45,-9.9,-9.9,13.6,-9.9
 2005/01/03,21:00,-9.9,-9.9,13.6,-9.9
 2005/01/03,21:15,-9.9,-9.9,13.6,-9.9
 2005/01/03,21:30,-9.9,-9.9,13.6,-9.9
 2005/01/03,21:45,-9.9,-9.9,13.7,-9.9
 2005/01/03,22:00,-9.9,-9.9,13.5,-9.9
 2005/01/03,22:15,-9.9,-9.9,13.6,-9.9
 2005/01/03,22:30,-9.9,-9.9,13.5,-9.9
 2005/01/03,22:45,-9.9,-9.9,13.6,-9.9
 2005/01/03,23:00,-9.9,-9.9,13.6,-9.9
 2005/01/03,23:15,-9.9,-9.9,13.6,-9.9
 2005/01/03,23:30,-9.9,-9.9,13.5,-9.9
 2005/01/03,23:45,-9.9,-9.9,13.6,-9.9
 2005/01/04, 0:00,-9.9,-9.9,13.5,-9.9
 2005/01/04, 0:15,-9.9,-9.9,13.5,-9.9
 2005/01/04, 0:30,-9.9,-9.9,13.5,-9.9
 2005/01/04, 0:45,-9.9,-9.9,13.5,-9.9
 2005/01/04, 1:00,-9.9,-9.9,13.9,-9.9
 2005/01/04, 1:15,-9.9,-9.9,14.1,-9.9
 2005/01/04, 1:30,-9.9,-9.9,14.1,-9.9
 2005/01/04, 1:45,-9.9,-9.9,14,-9.9
 2005/01/04, 2:00,-9.9,-9.9,14,-9.9
 2005/01/04, 2:15,-9.9,-9.9,14.1,-9.9
 2005/01/04, 2:30,-9.9,-9.9,14,-9.9
 2005/01/04, 2:45,-9.9,-9.9,14,-9.9
 2005/01/04, 3:00,-9.9,-9.9,14.1,-9.9
 2005/01/04, 3:15,-9.9,-9.9,14,-9.9
 2005/01/04, 3:30,-9.9,-9.9,13.9,-9.9
 2005/01/04, 3:45,-9.9,-9.9,13.9,-9.9
 2005/01/04, 4:00,-9.9,-9.9,13.9,-9.9
 2005/01/04, 4:15,-9.9,-9.9,13.9,-9.9
 2005/01/04, 4:30,-9.9,-9.9,13.9,-9.9
 2005/01/04, 4:45,-9.9,-9.9,13.9,-9.9
 2005/01/04, 5:00,-9.9,-9.9,13.8,-9.9
 2005/01/04, 5:15,-9.9,-9.9,13.9,-9.9
 2005/01/04, 5:30,-9.9,-9.9,13.8,-9.9
 2005/01/04, 5:45,-9.9,-9.9,13.8,-9.9
 2005/01/04, 6:00,-9.9,-9.9,13.7,-9.9
 2005/01/04, 6:15,-9.9,-9.9,13.7,-9.9
 2005/01/04, 6:30,-9.9,-9.9,13.8,-9.9
 2005/01/04, 6:45,-9.9,-9.9,13.7,-9.9
 2005/01/04, 7:00,-9.9,-9.9,13.9,-9.9
 2005/01/04, 7:15,-9.9,-9.9,14,-9.9
 2005/01/04, 7:30,-9.9,-9.9,14.2,-9.9
 2005/01/04, 7:45,-9.9,-9.9,14.3,-9.9
 2005/01/04, 8:00,-9.9,-9.9,14.5,-9.9
 2005/01/04, 8:15,-9.9,-9.9,14.5,-9.9
 2005/01/04, 8:30,-9.9,-9.9,14.5,-9.9
 2005/01/04, 8:45,-9.9,-9.9,14.5,-9.9
 2005/01/04, 9:00,-9.9,-9.9,14.8,-9.9
 2005/01/04, 9:15,-9.9,-9.9,14.7,-9.9
 2005/01/04, 9:30,-9.9,-9.9,14.9,-9.9
 2005/01/04, 9:45,-9.9,-9.9,15,-9.9
 2005/01/04,10:00,-9.9,-9.9,15,-9.9
 2005/01/04,10:15,-9.9,-9.9,14.9,-9.9
 2005/01/04,10:30,-9.9,-9.9,15.1,-9.9
 2005/01/04,10:45,-9.9,-9.9,15.4,-9.9
 2005/01/04,11:00,-9.9,-9.9,15.4,-9.9
 2005/01/04,11:15,-9.9,-9.9,15.3,-9.9
 2005/01/04,11:30,-9.9,-9.9,15.4,-9.9
 2005/01/04,11:45,-9.9,-9.9,15.5,-9.9
 2005/01/04,12:00,-9.9,-9.9,15.5,-9.9
 2005/01/04,12:15,-9.9,-9.9,15.5,-9.9
 2005/01/04,12:30,-9.9,-9.9,15.5,-9.9
 2005/01/04,12:45,-9.9,-9.9,15.4,-9.9
 2005/01/04,13:00,-9.9,-9.9,15.4,-9.9
 2005/01/04,13:15,-9.9,-9.9,15.3,-9.9
 2005/01/04,13:30,-9.9,-9.9,15.4,-9.9
 2005/01/04,13:45,-9.9,-9.9,15.5,-9.9
 2005/01/04,14:00,-9.9,-9.9,15.5,-9.9
 2005/01/04,14:15,-9.9,-9.9,15.5,-9.9
 2005/01/04,14:30,-9.9,-9.9,15.7,-9.9
 2005/01/04,14:45,-9.9,-9.9,15.6,-9.9
 2005/01/04,15:00,-9.9,-9.9,15.6,-9.9
 2005/01/04,15:15,-9.9,-9.9,15.5,-9.9
 2005/01/04,15:30,-9.9,-9.9,15.6,-9.9
 2005/01/04,15:45,-9.9,-9.9,15.5,-9.9
 2005/01/04,16:00,-9.9,-9.9,15.6,-9.9
 2005/01/04,16:15,-9.9,-9.9,15.5,-9.9
 2005/01/04,16:30,-9.9,-9.9,15.5,-9.9
 2005/01/04,16:45,-9.9,-9.9,15.4,-9.9
 2005/01/04,17:00,-9.9,-9.9,15.6,-9.9
 2005/01/04,17:15,-9.9,-9.9,15.5,-9.9
 2005/01/04,17:30,-9.9,-9.9,15.6,-9.9
 2005/01/04,17:45,-9.9,-9.9,15.5,-9.9
 2005/01/04,18:00,-9.9,-9.9,15.5,-9.9
 2005/01/04,18:15,-9.9,-9.9,15.6,-9.9
 2005/01/04,18:30,-9.9,-9.9,15.6,-9.9
 2005/01/04,18:45,-9.9,-9.9,15.5,-9.9
 2005/01/04,19:00,-9.9,-9.9,15.7,-9.9
 2005/01/04,19:15,-9.9,-9.9,15.8,-9.9
 2005/01/04,19:30,-9.9,-9.9,15.8,-9.9
 2005/01/04,19:45,-9.9,-9.9,16,-9.9
 2005/01/04,20:00,-9.9,-9.9,16.1,-9.9
 2005/01/04,20:15,-9.9,-9.9,16.1,-9.9
 2005/01/04,20:30,-9.9,-9.9,16.1,-9.9
 2005/01/04,20:45,-9.9,-9.9,16.2,-9.9
 2005/01/04,21:00,-9.9,-9.9,16.1,-9.9
 2005/01/04,21:15,-9.9,-9.9,16.1,-9.9
 2005/01/04,21:30,-9.9,-9.9,16,-9.9
 2005/01/04,21:45,-9.9,-9.9,16,-9.9
 2005/01/04,22:00,-9.9,-9.9,16,-9.9
 2005/01/04,22:15,-9.9,-9.9,16,-9.9
 2005/01/04,22:30,-9.9,-9.9,16,-9.9
 2005/01/04,22:45,-9.9,-9.9,15.9,-9.9
 2005/01/04,23:00,-9.9,-9.9,15.9,-9.9
 2005/01/04,23:15,-9.9,-9.9,15.7,-9.9
 2005/01/04,23:30,-9.9,-9.9,15.6,-9.9
 2005/01/04,23:45,-9.9,-9.9,15.6,-9.9
 2005/01/05, 0:00,-9.9,-9.9,15.5,-9.9
 2005/01/05, 0:15,-9.9,-9.9,15.4,-9.9
 2005/01/05, 0:30,-9.9,-9.9,15.3,-9.9
 2005/01/05, 0:45,-9.9,-9.9,15.2,-9.9
 2005/01/05, 1:00,-9.9,-9.9,15.2,-9.9
 2005/01/05, 1:15,-9.9,-9.9,15,-9.9
 2005/01/05, 1:30,-9.9,-9.9,15.1,-9.9
 2005/01/05, 1:45,-9.9,-9.9,14.8,-9.9
 2005/01/05, 2:00,-9.9,-9.9,14.8,-9.9
 2005/01/05, 2:15,-9.9,-9.9,14.7,-9.9
 2005/01/05, 2:30,-9.9,-9.9,14.7,-9.9
 2005/01/05, 2:45,-9.9,-9.9,14.5,-9.9
 2005/01/05, 3:00,-9.9,-9.9,14.5,-9.9
 2005/01/05, 3:15,-9.9,-9.9,14.4,-9.9
 2005/01/05, 3:30,-9.9,-9.9,14.2,-9.9
 2005/01/05, 3:45,-9.9,-9.9,14.2,-9.9
 2005/01/05, 4:00,-9.9,-9.9,14.1,-9.9
 2005/01/05, 4:15,-9.9,-9.9,13.9,-9.9
 2005/01/05, 4:30,-9.9,-9.9,13.9,-9.9
 2005/01/05, 4:45,-9.9,-9.9,13.8,-9.9
 2005/01/05, 5:00,-9.9,-9.9,13.7,-9.9
 2005/01/05, 5:15,-9.9,-9.9,13.7,-9.9
 2005/01/05, 5:30,-9.9,-9.9,13.6,-9.9
 2005/01/05, 5:45,-9.9,-9.9,13.4,-9.9
 2005/01/05, 6:00,-9.9,-9.9,13.4,-9.9
 2005/01/05, 6:15,-9.9,-9.9,13.2,-9.9
 2005/01/05, 6:30,-9.9,-9.9,13.2,-9.9
 2005/01/05, 6:45,-9.9,-9.9,13.1,-9.9
 2005/01/05, 7:00,-9.9,-9.9,13.1,-9.9
 2005/01/05, 7:15,-9.9,-9.9,13.2,-9.9
 2005/01/05, 7:30,-9.9,-9.9,13.2,-9.9
 2005/01/05, 7:45,-9.9,-9.9,13.3,-9.9
 2005/01/05, 8:00,-9.9,-9.9,13.3,-9.9
 2005/01/05, 8:15,-9.9,-9.9,13.4,-9.9
 2005/01/05, 8:30,-9.9,-9.9,13.4,-9.9
 2005/01/05, 8:45,-9.9,-9.9,13.6,-9.9
 2005/01/05, 9:00,-9.9,-9.9,13.5,-9.9
 2005/01/05, 9:15,-9.9,-9.9,13.6,-9.9
 2005/01/05, 9:30,-9.9,-9.9,13.5,-9.9
 2005/01/05, 9:45,-9.9,-9.9,13.6,-9.9
 2005/01/05,10:00,-9.9,-9.9,13.6,-9.9
 2005/01/05,10:15,-9.9,-9.9,13.5,-9.9
 2005/01/05,10:30,-9.9,-9.9,13.6,-9.9
 2005/01/05,10:45,-9.9,-9.9,13.6,-9.9
 2005/01/05,11:00,-9.9,-9.9,13.7,-9.9
 2005/01/05,11:15,-9.9,-9.9,13.7,-9.9
 2005/01/05,11:30,-9.9,-9.9,13.9,-9.9
 2005/01/05,11:45,-9.9,-9.9,13.9,-9.9
 2005/01/05,12:00,-9.9,-9.9,14.2,-9.9
 2005/01/05,12:15,-9.9,-9.9,14.4,-9.9
 2005/01/05,12:30,-9.9,-9.9,14.6,-9.9
 2005/01/05,12:45,-9.9,-9.9,14.8,-9.9
 2005/01/05,13:00,-9.9,-9.9,14.7,-9.9
 2005/01/05,13:15,-9.9,-9.9,14.6,-9.9
 2005/01/05,13:30,-9.9,-9.9,14.9,-9.9
 2005/01/05,13:45,-9.9,-9.9,15,-9.9
 2005/01/05,14:00,-9.9,-9.9,15.2,-9.9
 2005/01/05,14:15,-9.9,-9.9,15.4,-9.9
 2005/01/05,14:30,-9.9,-9.9,15.5,-9.9
 2005/01/05,14:45,-9.9,-9.9,15.3,-9.9
 2005/01/05,15:00,-9.9,-9.9,15.4,-9.9
 2005/01/05,15:15,-9.9,-9.9,15.3,-9.9
 2005/01/05,15:30,-9.9,-9.9,15.3,-9.9
 2005/01/05,15:45,-9.9,-9.9,15.2,-9.9
 2005/01/05,16:00,-9.9,-9.9,15.1,-9.9
 2005/01/05,16:15,-9.9,-9.9,15.1,-9.9
 2005/01/05,16:30,-9.9,-9.9,15,-9.9
 2005/01/05,16:45,-9.9,-9.9,14.9,-9.9
 2005/01/05,17:00,-9.9,-9.9,14.9,-9.9
 2005/01/05,17:15,-9.9,-9.9,14.8,-9.9
 2005/01/05,17:30,-9.9,-9.9,14.8,-9.9
 2005/01/05,17:45,-9.9,-9.9,14.8,-9.9
 2005/01/05,18:00,-9.9,-9.9,14.9,-9.9
 2005/01/05,18:15,-9.9,-9.9,14.8,-9.9
 2005/01/05,18:30,-9.9,-9.9,14.8,-9.9
 2005/01/05,18:45,-9.9,-9.9,14.9,-9.9
 2005/01/05,19:00,-9.9,-9.9,15.1,-9.9
 2005/01/05,19:15,-9.9,-9.9,15.2,-9.9
 2005/01/05,19:30,-9.9,-9.9,15.2,-9.9
 2005/01/05,19:45,-9.9,-9.9,15.2,-9.9
 2005/01/05,20:00,-9.9,-9.9,15.2,-9.9
 2005/01/05,20:15,-9.9,-9.9,15.1,-9.9
 2005/01/05,20:30,-9.9,-9.9,15.2,-9.9
 2005/01/05,20:45,-9.9,-9.9,15.3,-9.9
 2005/01/05,21:00,-9.9,-9.9,15.3,-9.9
 2005/01/05,21:15,-9.9,-9.9,15.3,-9.9
 2005/01/05,21:30,-9.9,-9.9,15.2,-9.9
 2005/01/05,21:45,-9.9,-9.9,15.1,-9.9
 2005/01/05,22:00,-9.9,-9.9,15,-9.9
 2005/01/05,22:15,-9.9,-9.9,15,-9.9
 2005/01/05,22:30,-9.9,-9.9,15,-9.9
 2005/01/05,22:45,-9.9,-9.9,14.9,-9.9
 2005/01/05,23:00,-9.9,-9.9,14.9,-9.9
 2005/01/05,23:15,-9.9,-9.9,14.7,-9.9
 2005/01/05,23:30,-9.9,-9.9,14.7,-9.9
 2005/01/05,23:45,-9.9,-9.9,14.6,-9.9
 2005/01/06, 0:00,-9.9,-9.9,14.5,-9.9
 2005/01/06, 0:15,-9.9,-9.9,14.5,-9.9
 2005/01/06, 0:30,-9.9,-9.9,14.4,-9.9
 2005/01/06, 0:45,-9.9,-9.9,14.4,-9.9
 2005/01/06, 1:00,-9.9,-9.9,14.3,-9.9
 2005/01/06, 1:15,-9.9,-9.9,14.2,-9.9
 2005/01/06, 1:30,-9.9,-9.9,14.2,-9.9
 2005/01/06, 1:45,-9.9,-9.9,14.2,-9.9
 2005/01/06, 2:00,-9.9,-9.9,14.1,-9.9
 2005/01/06, 2:15,-9.9,-9.9,14,-9.9
 2005/01/06, 2:30,-9.9,-9.9,13.8,-9.9
 2005/01/06, 2:45,-9.9,-9.9,13.8,-9.9
 2005/01/06, 3:00,-9.9,-9.9,13.5,-9.9
 2005/01/06, 3:15,-9.9,-9.9,13.4,-9.9
 2005/01/06, 3:30,-9.9,-9.9,13.4,-9.9
 2005/01/06, 3:45,-9.9,-9.9,13.3,-9.9
 2005/01/06, 4:00,-9.9,-9.9,13.2,-9.9
 2005/01/06, 4:15,-9.9,-9.9,13,-9.9
 2005/01/06, 4:30,-9.9,-9.9,13,-9.9
 2005/01/06, 4:45,-9.9,-9.9,12.9,-9.9
 2005/01/06, 5:00,-9.9,-9.9,12.7,-9.9
 2005/01/06, 5:15,-9.9,-9.9,12.7,-9.9
 2005/01/06, 5:30,-9.9,-9.9,12.6,-9.9
 2005/01/06, 5:45,-9.9,-9.9,12.6,-9.9
 2005/01/06, 6:00,-9.9,-9.9,12.5,-9.9
 2005/01/06, 6:15,-9.9,-9.9,12.5,-9.9
 2005/01/06, 6:30,-9.9,-9.9,12.4,-9.9
 2005/01/06, 6:45,-9.9,-9.9,12.4,-9.9
 2005/01/06, 7:00,-9.9,-9.9,12.2,-9.9
 2005/01/06, 7:15,-9.9,-9.9,12.2,-9.9
 2005/01/06, 7:30,-9.9,-9.9,12.2,-9.9
 2005/01/06, 7:45,-9.9,-9.9,12,-9.9
 2005/01/06, 8:00,-9.9,-9.9,12.1,-9.9
 2005/01/06, 8:15,-9.9,-9.9,11.8,-9.9
 2005/01/06, 8:30,-9.9,-9.9,11.9,-9.9
 2005/01/06, 8:45,-9.9,-9.9,12,-9.9
 2005/01/06, 9:00,-9.9,-9.9,11.9,-9.9
 2005/01/06, 9:15,-9.9,-9.9,11.8,-9.9
 2005/01/06, 9:30,-9.9,-9.9,11.7,-9.9
 2005/01/06, 9:45,-9.9,-9.9,11.7,-9.9
 2005/01/06,10:00,-9.9,-9.9,11.6,-9.9
 2005/01/06,10:15,-9.9,-9.9,11.6,-9.9
 2005/01/06,10:30,-9.9,-9.9,11.6,-9.9
 2005/01/06,10:45,-9.9,-9.9,11.6,-9.9
 2005/01/06,11:00,-9.9,-9.9,11.6,-9.9
 2005/01/06,11:15,-9.9,-9.9,11.6,-9.9
 2005/01/06,11:30,-9.9,-9.9,11.7,-9.9
 2005/01/06,11:45,-9.9,-9.9,12.4,-9.9
 2005/01/06,12:00,-9.9,-9.9,13.1,-9.9
 2005/01/06,12:15,-9.9,-9.9,13.2,-9.9
 2005/01/06,12:30,-9.9,-9.9,13.5,-9.9
 2005/01/06,12:45,-9.9,-9.9,14.1,-9.9
 2005/01/06,13:00,-9.9,-9.9,13.7,-9.9
 2005/01/06,13:15,-9.9,-9.9,13.4,-9.9
 2005/01/06,13:30,-9.9,-9.9,13.2,-9.9
 2005/01/06,13:45,-9.9,-9.9,13.3,-9.9
 2005/01/06,14:00,-9.9,-9.9,13.1,-9.9
 2005/01/06,14:15,-9.9,-9.9,13.1,-9.9
 2005/01/06,14:30,-9.9,-9.9,13,-9.9
 2005/01/06,14:45,-9.9,-9.9,13,-9.9
 2005/01/06,15:00,-9.9,-9.9,12.9,-9.9
 2005/01/06,15:15,-9.9,-9.9,12.9,-9.9
 2005/01/06,15:30,-9.9,-9.9,12.9,-9.9
 2005/01/06,15:45,-9.9,-9.9,12.8,-9.9
 2005/01/06,16:00,-9.9,-9.9,12.8,-9.9
 2005/01/06,16:15,-9.9,-9.9,12.8,-9.9
 2005/01/06,16:30,-9.9,-9.9,12.8,-9.9
 2005/01/06,16:45,-9.9,-9.9,12.6,-9.9
 2005/01/06,17:00,-9.9,-9.9,12.6,-9.9
 2005/01/06,17:15,-9.9,-9.9,12.6,-9.9
 2005/01/06,17:30,-9.9,-9.9,13.7,-9.9
 2005/01/06,17:45,-9.9,-9.9,14,-9.9
 2005/01/06,18:00,-9.9,-9.9,14.1,-9.9
 2005/01/06,18:15,-9.9,-9.9,14.1,-9.9
 2005/01/06,18:30,-9.9,-9.9,14.1,-9.9
 2005/01/06,18:45,-9.9,-9.9,14.3,-9.9
 2005/01/06,19:00,-9.9,-9.9,14.3,-9.9
 2005/01/06,19:15,-9.9,-9.9,14.3,-9.9
 2005/01/06,19:30,-9.9,-9.9,14.4,-9.9
 2005/01/06,19:45,-9.9,-9.9,14.4,-9.9
 2005/01/06,20:00,-9.9,-9.9,14.4,-9.9
 2005/01/06,20:15,-9.9,-9.9,14.6,-9.9
 2005/01/06,20:30,-9.9,-9.9,14.5,-9.9
 2005/01/06,20:45,-9.9,-9.9,14.5,-9.9
 2005/01/06,21:00,-9.9,-9.9,14.5,-9.9
 2005/01/06,21:15,-9.9,-9.9,14.7,-9.9
 2005/01/06,21:30,-9.9,-9.9,14.7,-9.9
 2005/01/06,21:45,-9.9,-9.9,14.6,-9.9
 2005/01/06,22:00,-9.9,-9.9,14.7,-9.9
 2005/01/06,22:15,-9.9,-9.9,14.8,-9.9
 2005/01/06,22:30,-9.9,-9.9,14.7,-9.9
 2005/01/06,22:45,-9.9,-9.9,14.8,-9.9
 2005/01/06,23:00,-9.9,-9.9,14.8,-9.9
 2005/01/06,23:15,-9.9,-9.9,14.8,-9.9
 2005/01/06,23:30,-9.9,-9.9,14.8,-9.9
 2005/01/06,23:45,-9.9,-9.9,14.8,-9.9
 2005/01/07, 0:00,-9.9,-9.9,14.9,-9.9
 2005/01/07, 0:15,-9.9,-9.9,14.8,-9.9
 2005/01/07, 0:30,-9.9,-9.9,14.8,-9.9
 2005/01/07, 0:45,-9.9,-9.9,14.8,-9.9
 2005/01/07, 1:00,-9.9,-9.9,14.7,-9.9
 2005/01/07, 1:15,-9.9,-9.9,14.8,-9.9
 2005/01/07, 1:30,-9.9,-9.9,14.6,-9.9
 2005/01/07, 1:45,-9.9,-9.9,14.5,-9.9
 2005/01/07, 2:00,-9.9,-9.9,14.6,-9.9
 2005/01/07, 2:15,-9.9,-9.9,14.6,-9.9
 2005/01/07, 2:30,-9.9,-9.9,14.5,-9.9
 2005/01/07, 2:45,-9.9,-9.9,14.4,-9.9
 2005/01/07, 3:00,-9.9,-9.9,14.4,-9.9
 2005/01/07, 3:15,-9.9,-9.9,14.3,-9.9
 2005/01/07, 3:30,-9.9,-9.9,14.3,-9.9
 2005/01/07, 3:45,-9.9,-9.9,14.2,-9.9
 2005/01/07, 4:00,-9.9,-9.9,14.3,-9.9
 2005/01/07, 4:15,-9.9,-9.9,14.3,-9.9
 2005/01/07, 4:30,-9.9,-9.9,14.2,-9.9
 2005/01/07, 4:45,-9.9,-9.9,14.2,-9.9
 2005/01/07, 5:00,-9.9,-9.9,14.2,-9.9
 2005/01/07, 5:15,-9.9,-9.9,14.1,-9.9
 2005/01/07, 5:30,-9.9,-9.9,14,-9.9
 2005/01/07, 5:45,-9.9,-9.9,14.1,-9.9
 2005/01/07, 6:00,-9.9,-9.9,14.1,-9.9
 2005/01/07, 6:15,-9.9,-9.9,13.9,-9.9
 2005/01/07, 6:30,-9.9,-9.9,14,-9.9
 2005/01/07, 6:45,-9.9,-9.9,13.9,-9.9
 2005/01/07, 7:00,-9.9,-9.9,13.8,-9.9
 2005/01/07, 7:15,-9.9,-9.9,13.9,-9.9
 2005/01/07, 7:30,-9.9,-9.9,13.7,-9.9
 2005/01/07, 7:45,-9.9,-9.9,13.8,-9.9
 2005/01/07, 8:00,-9.9,-9.9,13.7,-9.9
 2005/01/07, 8:15,-9.9,-9.9,13.6,-9.9
 2005/01/07, 8:30,-9.9,-9.9,13.6,-9.9
 2005/01/07, 8:45,-9.9,-9.9,13.5,-9.9
 2005/01/07, 9:00,-9.9,-9.9,13.4,-9.9
 2005/01/07, 9:15,-9.9,-9.9,13.4,-9.9
 2005/01/07, 9:30,-9.9,-9.9,13.4,-9.9
 2005/01/07, 9:45,-9.9,-9.9,13.4,-9.9
 2005/01/07,10:00,-9.9,-9.9,13.4,-9.9
 2005/01/07,10:15,-9.9,-9.9,13.3,-9.9
 2005/01/07,10:30,-9.9,-9.9,13.2,-9.9
 2005/01/07,10:45,-9.9,-9.9,13.3,-9.9
 2005/01/07,11:00,-9.9,-9.9,13.3,-9.9